Time,TemperatureF,DewpointF,PressureIn,WindDirection,WindDirectionDegrees,WindSpeedMPH,WindSpeedGustMPH,Humidity,HourlyPrecipIn,Conditions,Clouds,dailyrainin,SoftwareType,DateUTC
2013-08-08 00:00:00,66.1,64.0,30.10,ESE,116,0.0,15.0,93,0.00,,,0.00,Wunderground v.1.15,2013-08-08 04:00:00,
2013-08-08 00:05:00,66.1,64.0,30.10,ESE,114,0.0,15.0,93,0.00,,,0.00,Wunderground v.1.15,2013-08-08 04:05:00,
2013-08-08 00:10:00,66.1,64.0,30.10,ESE,115,0.0,15.0,93,0.00,,,0.00,Wunderground v.1.15,2013-08-08 04:10:00,
2013-08-08 00:15:00,66.2,64.1,30.10,ESE,116,0.0,15.0,93,0.00,,,0.00,Wunderground v.1.15,2013-08-08 04:15:00,
2013-08-08 00:25:00,66.2,64.1,30.09,SE,125,0.0,15.0,93,0.00,,,0.00,Wunderground v.1.15,2013-08-08 04:25:00,
2013-08-08 00:30:00,66.3,64.2,30.09,SE,124,0.0,15.0,93,0.00,,,0.00,Wunderground v.1.15,2013-08-08 04:30:00,
2013-08-08 00:35:00,66.3,64.2,30.10,SE,124,0.0,15.0,93,0.00,,,0.00,Wunderground v.1.15,2013-08-08 04:35:00,
2013-08-08 00:40:00,66.3,64.2,30.09,ESE,121,0.0,15.0,93,0.00,,,0.00,Wunderground v.1.15,2013-08-08 04:40:00,
2013-08-08 00:50:00,66.6,64.5,30.08,SE,132,0.0,15.0,93,0.00,,,0.00,Wunderground v.1.15,2013-08-08 04:50:00,
2013-08-08 00:55:00,66.7,64.3,30.08,ESE,105,0.0,15.0,92,0.00,,,0.00,Wunderground v.1.15,2013-08-08 04:55:00,
2013-08-08 01:05:00,66.9,64.5,30.08,ESE,120,0.0,15.0,92,0.00,,,0.00,Wunderground v.1.15,2013-08-08 05:05:00,
2013-08-08 01:15:00,67.1,64.4,30.08,SE,133,1.0,15.0,91,0.00,,,0.00,Wunderground v.1.15,2013-08-08 05:15:00,
2013-08-08 01:25:00,67.2,64.5,30.08,SE,135,0.0,15.0,91,0.00,,,0.00,Wunderground v.1.15,2013-08-08 05:25:00,
2013-08-08 01:35:00,67.3,64.3,30.08,SE,131,0.0,15.0,90,0.00,,,0.00,Wunderground v.1.15,2013-08-08 05:35:00,
2013-08-08 01:40:00,67.4,64.4,30.08,ESE,122,0.0,15.0,90,0.00,,,0.00,Wunderground v.1.15,2013-08-08 05:40:00,
2013-08-08 01:50:00,67.5,64.5,30.08,ESE,107,0.0,15.0,90,0.00,,,0.00,Wunderground v.1.15,2013-08-08 05:50:00,
2013-08-08 01:55:00,67.6,64.6,30.08,SE,133,0.0,15.0,90,0.00,,,0.00,Wunderground v.1.15,2013-08-08 05:55:00,
2013-08-08 02:05:00,67.7,64.7,30.08,ESE,117,0.0,15.0,90,0.00,,,0.00,Wunderground v.1.15,2013-08-08 06:05:00,
2013-08-08 02:15:00,67.9,64.9,30.08,SE,129,1.0,15.0,90,0.00,,,0.00,Wunderground v.1.15,2013-08-08 06:15:00,
2013-08-08 02:25:00,67.9,64.9,30.08,SE,125,1.0,15.0,90,0.00,,,0.00,Wunderground v.1.15,2013-08-08 06:25:00,
2013-08-08 02:35:00,68.0,65.0,30.08,ESE,120,1.0,15.0,90,0.00,,,0.00,Wunderground v.1.15,2013-08-08 06:35:00,
2013-08-08 02:45:00,68.1,65.1,30.07,SE,124,1.0,15.0,90,0.00,,,0.00,Wunderground v.1.15,2013-08-08 06:45:00,
2013-08-08 02:55:00,68.1,65.1,30.07,SE,131,1.0,15.0,90,0.00,,,0.00,Wunderground v.1.15,2013-08-08 06:55:00,
2013-08-08 03:05:00,68.1,65.1,30.07,SE,131,1.0,15.0,90,0.00,,,0.00,Wunderground v.1.15,2013-08-08 07:05:00,
2013-08-08 03:15:00,68.0,65.0,30.07,SE,130,1.0,15.0,90,0.00,,,0.00,Wunderground v.1.15,2013-08-08 07:15:00,
2013-08-08 03:25:00,68.1,65.4,30.06,SE,134,1.0,15.0,91,0.00,,,0.00,Wunderground v.1.15,2013-08-08 07:25:00,
2013-08-08 03:35:00,68.1,65.4,30.06,SE,139,1.0,15.0,91,0.00,,,0.00,Wunderground v.1.15,2013-08-08 07:35:00,
2013-08-08 03:45:00,68.2,65.5,30.06,SE,130,0.0,15.0,91,0.00,,,0.00,Wunderground v.1.15,2013-08-08 07:45:00,
2013-08-08 03:55:00,68.2,65.5,30.06,SE,128,1.0,15.0,91,0.00,,,0.00,Wunderground v.1.15,2013-08-08 07:55:00,
2013-08-08 04:00:00,68.2,65.5,30.06,ESE,120,1.0,1.0,91,0.00,,,0.00,Wunderground v.1.15,2013-08-08 08:00:00,
2013-08-08 04:10:00,68.3,65.9,30.06,ESE,118,1.0,15.0,92,0.00,,,0.00,Wunderground v.1.15,2013-08-08 08:10:00,
2013-08-08 04:15:00,68.3,65.9,30.06,SE,132,1.0,15.0,92,0.00,,,0.00,Wunderground v.1.15,2013-08-08 08:15:00,
2013-08-08 04:25:00,68.0,65.9,30.06,SE,132,0.0,15.0,93,0.00,,,0.00,Wunderground v.1.15,2013-08-08 08:25:00,
2013-08-08 04:30:00,67.9,65.8,30.06,SE,133,0.0,15.0,93,0.00,,,0.00,Wunderground v.1.15,2013-08-08 08:30:00,
2013-08-08 04:40:00,67.7,65.9,30.05,SE,134,0.0,15.0,94,0.00,,,0.00,Wunderground v.1.15,2013-08-08 08:40:00,
2013-08-08 04:50:00,67.6,66.1,30.05,SSE,162,0.0,15.0,95,0.00,,,0.00,Wunderground v.1.15,2013-08-08 08:50:00,
2013-08-08 05:00:00,67.5,66.0,30.05,SSE,159,0.0,15.0,95,0.00,,,0.00,Wunderground v.1.15,2013-08-08 09:00:00,
2013-08-08 05:10:00,67.6,66.4,30.05,SE,125,1.0,1.0,96,0.00,,,0.00,Wunderground v.1.15,2013-08-08 09:10:00,
2013-08-08 05:15:00,67.6,66.4,30.05,SE,136,0.0,15.0,96,0.00,,,0.00,Wunderground v.1.15,2013-08-08 09:15:00,
2013-08-08 05:20:00,67.5,66.3,30.05,SE,134,0.0,15.0,96,0.00,,,0.00,Wunderground v.1.15,2013-08-08 09:20:00,
2013-08-08 05:30:00,67.6,66.4,30.05,SE,127,0.0,15.0,96,0.00,,,0.00,Wunderground v.1.15,2013-08-08 09:30:00,
2013-08-08 05:40:00,67.7,66.5,30.05,SE,131,1.0,15.0,96,0.00,,,0.00,Wunderground v.1.15,2013-08-08 09:40:00,
2013-08-08 05:50:00,67.8,66.9,30.05,SE,129,1.0,15.0,97,0.00,,,0.00,Wunderground v.1.15,2013-08-08 09:50:00,
2013-08-08 05:55:00,67.8,66.9,30.05,SE,146,1.0,15.0,97,0.00,,,0.00,Wunderground v.1.15,2013-08-08 09:55:00,
2013-08-08 06:05:00,67.9,67.0,30.05,SE,140,1.0,15.0,97,0.00,,,0.00,Wunderground v.1.15,2013-08-08 10:05:00,
2013-08-08 06:15:00,68.0,67.1,30.05,SE,132,0.0,15.0,97,0.00,,,0.00,Wunderground v.1.15,2013-08-08 10:15:00,
2013-08-08 06:25:00,68.1,67.2,30.05,SE,129,0.0,15.0,97,0.00,,,0.01,Wunderground v.1.15,2013-08-08 10:25:00,
2013-08-08 06:35:00,68.1,67.2,30.06,SSE,156,0.0,15.0,97,0.00,,,0.01,Wunderground v.1.15,2013-08-08 10:35:00,
2013-08-08 06:45:00,68.2,67.3,30.06,SSE,157,0.0,15.0,97,0.00,,,0.02,Wunderground v.1.15,2013-08-08 10:45:00,
2013-08-08 06:55:00,68.4,67.5,30.06,SE,134,0.0,15.0,97,0.00,,,0.02,Wunderground v.1.15,2013-08-08 10:55:00,
2013-08-08 07:05:00,68.5,67.9,30.06,SE,132,0.0,15.0,98,0.00,,,0.02,Wunderground v.1.15,2013-08-08 11:05:00,
2013-08-08 07:15:00,68.5,67.9,30.06,SE,125,0.0,15.0,98,0.00,,,0.02,Wunderground v.1.15,2013-08-08 11:15:00,
2013-08-08 07:20:00,68.6,67.7,30.06,ENE,63,0.0,15.0,97,0.00,,,0.02,Wunderground v.1.15,2013-08-08 11:20:00,
2013-08-08 07:30:00,68.6,68.0,30.06,ENE,57,0.0,15.0,98,0.00,,,0.02,Wunderground v.1.15,2013-08-08 11:30:00,
2013-08-08 07:40:00,68.8,68.2,30.06,NNE,31,0.0,15.0,98,0.00,,,0.02,Wunderground v.1.15,2013-08-08 11:40:00,
2013-08-08 07:50:00,69.0,68.1,30.06,ENE,58,0.0,15.0,97,0.00,,,0.02,Wunderground v.1.15,2013-08-08 11:50:00,
2013-08-08 08:00:00,69.2,68.6,30.06,ESE,122,0.0,15.0,98,0.00,,,0.02,Wunderground v.1.15,2013-08-08 12:00:00,
2013-08-08 08:10:00,69.3,68.4,30.06,ESE,120,0.0,15.0,97,0.00,,,0.02,Wunderground v.1.15,2013-08-08 12:10:00,
2013-08-08 08:20:00,69.3,68.4,30.06,SE,138,0.0,15.0,97,0.00,,,0.02,Wunderground v.1.15,2013-08-08 12:20:00,
2013-08-08 08:30:00,69.0,68.1,30.07,ESE,105,0.0,15.0,97,0.00,,,0.02,Wunderground v.1.15,2013-08-08 12:30:00,
2013-08-08 08:40:00,68.9,68.0,30.06,ENE,78,0.0,15.0,97,0.00,,,0.02,Wunderground v.1.15,2013-08-08 12:40:00,
2013-08-08 08:50:00,68.8,67.9,30.08,East,100,0.0,15.0,97,0.00,,,0.02,Wunderground v.1.15,2013-08-08 12:50:00,
2013-08-08 09:00:00,68.7,67.8,30.07,East,91,0.0,15.0,97,0.00,,,0.02,Wunderground v.1.15,2013-08-08 13:00:00,
2013-08-08 09:10:00,68.7,67.8,30.07,SE,124,0.0,15.0,97,0.00,,,0.02,Wunderground v.1.15,2013-08-08 13:10:00,
2013-08-08 09:20:00,68.9,68.0,30.07,SE,124,0.0,15.0,97,0.00,,,0.02,Wunderground v.1.15,2013-08-08 13:20:00,
2013-08-08 09:30:00,69.1,68.2,30.07,ESE,123,0.0,15.0,97,0.00,,,0.02,Wunderground v.1.15,2013-08-08 13:30:00,
2013-08-08 09:40:00,69.2,68.0,30.07,SE,129,0.0,15.0,96,0.00,,,0.02,Wunderground v.1.15,2013-08-08 13:40:00,
2013-08-08 09:45:00,69.3,68.1,30.07,SE,132,0.0,15.0,96,0.00,,,0.02,Wunderground v.1.15,2013-08-08 13:45:00,
2013-08-08 09:50:00,69.4,68.2,30.07,ESE,107,0.0,15.0,96,0.00,,,0.02,Wunderground v.1.15,2013-08-08 13:50:00,
2013-08-08 10:00:00,69.4,68.2,30.07,ESE,109,0.0,15.0,96,0.00,,,0.02,Wunderground v.1.15,2013-08-08 14:00:00,
2013-08-08 10:05:00,69.5,68.3,30.07,ESE,107,0.0,15.0,96,0.00,,,0.02,Wunderground v.1.15,2013-08-08 14:05:00,
2013-08-08 10:15:00,69.6,68.4,30.07,ESE,108,0.0,15.0,96,0.00,,,0.02,Wunderground v.1.15,2013-08-08 14:15:00,
2013-08-08 10:25:00,69.7,68.5,30.07,East,82,0.0,15.0,96,0.00,,,0.02,Wunderground v.1.15,2013-08-08 14:25:00,
2013-08-08 10:30:00,69.9,68.7,30.07,East,99,0.0,15.0,96,0.00,,,0.02,Wunderground v.1.15,2013-08-08 14:30:00,
2013-08-08 10:35:00,70.0,68.8,30.07,ENE,71,0.0,15.0,96,0.00,,,0.02,Wunderground v.1.15,2013-08-08 14:35:00,
2013-08-08 10:45:00,70.2,69.0,30.07,East,98,0.0,15.0,96,0.00,,,0.02,Wunderground v.1.15,2013-08-08 14:45:00,
2013-08-08 10:50:00,70.4,69.2,30.06,East,88,0.0,15.0,96,0.00,,,0.02,Wunderground v.1.15,2013-08-08 14:50:00,
2013-08-08 11:00:00,70.6,69.4,30.06,SE,146,1.0,15.0,96,0.00,,,0.02,Wunderground v.1.15,2013-08-08 15:00:00,
2013-08-08 11:10:00,70.6,69.1,30.06,SE,126,1.0,1.0,95,0.00,,,0.02,Wunderground v.1.15,2013-08-08 15:10:00,
2013-08-08 11:15:00,70.8,69.6,30.05,East,84,1.0,2.0,96,0.00,,,0.02,Wunderground v.1.15,2013-08-08 15:15:00,
2013-08-08 11:25:00,70.8,69.3,30.05,SE,143,0.0,15.0,95,0.00,,,0.02,Wunderground v.1.15,2013-08-08 15:25:00,
2013-08-08 11:35:00,70.8,69.3,30.05,SE,127,0.0,15.0,95,0.00,,,0.02,Wunderground v.1.15,2013-08-08 15:35:00,
2013-08-08 11:45:00,71.0,69.8,30.05,East,81,0.0,15.0,96,0.00,,,0.02,Wunderground v.1.15,2013-08-08 15:45:00,
2013-08-08 11:55:00,71.3,69.8,30.05,SE,144,1.0,15.0,95,0.00,,,0.02,Wunderground v.1.15,2013-08-08 15:55:00,
2013-08-08 12:05:00,71.4,69.6,30.05,SE,142,1.0,15.0,94,0.00,,,0.02,Wunderground v.1.15,2013-08-08 16:05:00,
2013-08-08 12:15:00,71.9,70.1,30.05,East,94,0.0,15.0,94,0.00,,,0.02,Wunderground v.1.15,2013-08-08 16:15:00,
2013-08-08 12:20:00,72.3,70.2,30.04,SE,136,1.0,1.0,93,0.00,,,0.02,Wunderground v.1.15,2013-08-08 16:20:00,
2013-08-08 12:30:00,72.9,70.4,30.04,SSW,200,1.0,15.0,92,0.00,,,0.02,Wunderground v.1.15,2013-08-08 16:30:00,
2013-08-08 12:40:00,73.1,70.0,30.05,East,84,1.0,1.0,90,0.00,,,0.02,Wunderground v.1.15,2013-08-08 16:40:00,
2013-08-08 12:50:00,73.0,70.2,30.05,SSE,167,1.0,1.0,91,0.00,,,0.02,Wunderground v.1.15,2013-08-08 16:50:00,
2013-08-08 13:00:00,73.3,70.5,30.04,SE,129,1.0,1.0,91,0.00,,,0.02,Wunderground v.1.15,2013-08-08 17:00:00,
2013-08-08 13:10:00,73.7,70.6,30.04,SSE,158,0.0,15.0,90,0.00,,,0.02,Wunderground v.1.15,2013-08-08 17:10:00,
2013-08-08 13:20:00,74.0,70.9,30.05,East,86,1.0,15.0,90,0.00,,,0.02,Wunderground v.1.15,2013-08-08 17:20:00,
2013-08-08 13:30:00,74.5,71.0,30.05,SE,135,1.0,1.0,89,0.00,,,0.02,Wunderground v.1.15,2013-08-08 17:30:00,
2013-08-08 13:40:00,75.1,71.6,30.05,SE,127,0.0,15.0,89,0.00,,,0.02,Wunderground v.1.15,2013-08-08 17:40:00,
2013-08-08 13:50:00,75.7,71.6,30.05,SW,228,1.0,15.0,87,0.00,,,0.02,Wunderground v.1.15,2013-08-08 17:50:00,
2013-08-08 14:00:00,76.0,71.5,30.05,ESE,111,1.0,15.0,86,0.00,,,0.02,Wunderground v.1.15,2013-08-08 18:00:00,
2013-08-08 14:10:00,76.4,71.6,30.05,East,100,1.0,1.0,85,0.00,,,0.02,Wunderground v.1.15,2013-08-08 18:10:00,
2013-08-08 14:20:00,76.7,71.5,30.05,WSW,242,0.0,15.0,84,0.00,,,0.02,Wunderground v.1.15,2013-08-08 18:20:00,
2013-08-08 14:30:00,77.0,71.8,30.04,East,82,0.0,15.0,84,0.00,,,0.02,Wunderground v.1.15,2013-08-08 18:30:00,
2013-08-08 14:40:00,77.2,72.0,30.04,SE,132,1.0,1.0,84,0.00,,,0.02,Wunderground v.1.15,2013-08-08 18:40:00,
2013-08-08 14:50:00,77.5,71.9,30.04,SSE,158,1.0,1.0,83,0.00,,,0.02,Wunderground v.1.15,2013-08-08 18:50:00,
2013-08-08 15:00:00,78.1,72.2,30.04,ESE,104,1.0,1.0,82,0.00,,,0.02,Wunderground v.1.15,2013-08-08 19:00:00,
2013-08-08 15:10:00,78.4,72.4,30.04,East,96,0.0,15.0,82,0.00,,,0.02,Wunderground v.1.15,2013-08-08 19:10:00,
2013-08-08 15:20:00,78.5,72.2,30.04,ESE,122,0.0,15.0,81,0.00,,,0.02,Wunderground v.1.15,2013-08-08 19:20:00,
2013-08-08 15:30:00,78.3,72.3,30.04,SE,134,0.0,15.0,82,0.00,,,0.02,Wunderground v.1.15,2013-08-08 19:30:00,
2013-08-08 15:40:00,78.1,72.2,30.04,ESE,114,0.0,15.0,82,0.00,,,0.02,Wunderground v.1.15,2013-08-08 19:40:00,
2013-08-08 15:50:00,77.9,72.0,30.04,SE,135,0.0,15.0,82,0.00,,,0.02,Wunderground v.1.15,2013-08-08 19:50:00,
2013-08-08 16:00:00,77.5,71.9,30.03,East,98,0.0,15.0,83,0.00,,,0.02,Wunderground v.1.15,2013-08-08 20:00:00,
2013-08-08 16:10:00,77.1,71.5,30.03,SE,134,0.0,15.0,83,0.00,,,0.02,Wunderground v.1.15,2013-08-08 20:10:00,
2013-08-08 16:15:00,76.9,71.7,30.03,SSE,152,0.0,15.0,84,0.00,,,0.02,Wunderground v.1.15,2013-08-08 20:15:00,
2013-08-08 16:20:00,76.7,71.5,30.03,SE,143,0.0,15.0,84,0.00,,,0.02,Wunderground v.1.15,2013-08-08 20:20:00,
2013-08-08 16:30:00,76.5,71.7,30.02,ESE,117,1.0,15.0,85,0.00,,,0.02,Wunderground v.1.15,2013-08-08 20:30:00,
2013-08-08 16:35:00,76.4,71.9,30.02,East,91,1.0,15.0,86,0.00,,,0.02,Wunderground v.1.15,2013-08-08 20:35:00,
2013-08-08 16:45:00,76.4,71.6,30.02,SE,137,0.0,15.0,85,0.00,,,0.02,Wunderground v.1.15,2013-08-08 20:45:00,
2013-08-08 16:55:00,76.4,71.6,30.02,SSE,148,0.0,15.0,85,0.00,,,0.02,Wunderground v.1.15,2013-08-08 20:55:00,
2013-08-08 17:05:00,76.4,71.9,30.02,SE,139,0.0,15.0,86,0.00,,,0.02,Wunderground v.1.15,2013-08-08 21:05:00,
2013-08-08 17:15:00,76.4,71.9,30.02,SE,136,0.0,15.0,86,0.00,,,0.02,Wunderground v.1.15,2013-08-08 21:15:00,
2013-08-08 17:25:00,76.3,71.8,30.02,SSE,152,1.0,15.0,86,0.00,,,0.02,Wunderground v.1.15,2013-08-08 21:25:00,
2013-08-08 17:35:00,76.2,71.7,30.02,NE,50,0.0,15.0,86,0.00,,,0.02,Wunderground v.1.15,2013-08-08 21:35:00,
2013-08-08 17:45:00,75.8,71.7,30.02,ESE,117,1.0,15.0,87,0.00,,,0.02,Wunderground v.1.15,2013-08-08 21:45:00,
2013-08-08 18:00:00,75.9,71.8,30.01,SE,134,1.0,15.0,87,0.00,,,0.02,Wunderground v.1.15,2013-08-08 22:00:00,
2013-08-08 18:05:00,75.7,71.6,30.02,SE,132,1.0,15.0,87,0.00,,,0.02,Wunderground v.1.15,2013-08-08 22:05:00,
2013-08-08 18:20:00,75.4,71.6,30.02,SE,134,0.0,15.0,88,0.00,,,0.02,Wunderground v.1.15,2013-08-08 22:20:00,
2013-08-08 18:25:00,75.3,71.5,30.02,SE,131,1.0,15.0,88,0.00,,,0.02,Wunderground v.1.15,2013-08-08 22:25:00,
2013-08-08 18:40:00,75.0,71.2,30.02,ESE,117,0.0,15.0,88,0.00,,,0.02,Wunderground v.1.15,2013-08-08 22:40:00,
2013-08-08 18:45:00,74.9,71.4,30.02,ESE,114,0.0,15.0,89,0.00,,,0.02,Wunderground v.1.15,2013-08-08 22:45:00,
2013-08-08 18:55:00,74.7,71.2,30.02,ESE,110,0.0,15.0,89,0.00,,,0.02,Wunderground v.1.15,2013-08-08 22:55:00,
2013-08-08 19:05:00,74.6,71.1,30.02,ESE,113,0.0,15.0,89,0.00,,,0.02,Wunderground v.1.15,2013-08-08 23:05:00,
2013-08-08 19:20:00,74.2,71.1,30.02,East,80,0.0,15.0,90,0.00,,,0.02,Wunderground v.1.15,2013-08-08 23:20:00,
2013-08-08 19:25:00,74.2,71.1,30.02,East,81,0.0,15.0,90,0.00,,,0.02,Wunderground v.1.15,2013-08-08 23:25:00,
2013-08-08 19:35:00,74.1,71.0,30.02,East,81,0.0,15.0,90,0.00,,,0.02,Wunderground v.1.15,2013-08-08 23:35:00,
2013-08-08 19:40:00,74.0,70.9,30.02,East,81,0.0,15.0,90,0.00,,,0.02,Wunderground v.1.15,2013-08-08 23:40:00,
2013-08-08 19:55:00,73.8,71.0,30.02,East,85,0.0,15.0,91,0.00,,,0.02,Wunderground v.1.15,2013-08-08 23:55:00,
2013-08-08 20:05:00,73.7,70.9,30.03,East,85,0.0,15.0,91,0.00,,,0.02,Wunderground v.1.15,2013-08-09 00:05:00,
2013-08-08 20:15:00,73.5,71.0,30.03,East,84,0.0,15.0,92,0.00,,,0.02,Wunderground v.1.15,2013-08-09 00:15:00,
2013-08-08 20:20:00,73.5,71.0,30.03,East,85,0.0,15.0,92,0.00,,,0.02,Wunderground v.1.15,2013-08-09 00:20:00,
2013-08-08 20:30:00,73.3,70.8,30.03,East,82,0.0,15.0,92,0.00,,,0.02,Wunderground v.1.15,2013-08-09 00:30:00,
2013-08-08 20:35:00,73.2,70.7,30.03,East,82,0.0,15.0,92,0.00,,,0.02,Wunderground v.1.15,2013-08-09 00:35:00,
2013-08-08 20:45:00,73.1,71.0,30.04,East,101,0.0,15.0,93,0.00,,,0.02,Wunderground v.1.15,2013-08-09 00:45:00,
2013-08-08 20:55:00,73.0,70.9,30.04,East,101,0.0,15.0,93,0.00,,,0.02,Wunderground v.1.15,2013-08-09 00:55:00,
2013-08-08 21:05:00,72.9,70.8,30.04,ESE,104,0.0,15.0,93,0.00,,,0.02,Wunderground v.1.15,2013-08-09 01:05:00,
2013-08-08 21:15:00,72.8,70.7,30.04,East,98,0.0,15.0,93,0.00,,,0.02,Wunderground v.1.15,2013-08-09 01:15:00,
2013-08-08 21:20:00,72.7,70.6,30.04,East,100,0.0,15.0,93,0.00,,,0.02,Wunderground v.1.15,2013-08-09 01:20:00,
2013-08-08 21:30:00,72.5,70.7,30.04,ESE,120,0.0,15.0,94,0.00,,,0.02,Wunderground v.1.15,2013-08-09 01:30:00,
2013-08-08 21:40:00,72.3,70.5,30.04,ENE,63,0.0,15.0,94,0.00,,,0.02,Wunderground v.1.15,2013-08-09 01:40:00,
2013-08-08 21:50:00,72.0,70.2,30.04,East,85,0.0,15.0,94,0.00,,,0.02,Wunderground v.1.15,2013-08-09 01:50:00,
2013-08-08 22:00:00,71.8,70.3,30.04,East,92,0.0,15.0,95,0.00,,,0.02,Wunderground v.1.15,2013-08-09 02:00:00,
2013-08-08 22:15:00,71.8,70.3,30.03,ENE,74,0.0,15.0,95,0.00,,,0.02,Wunderground v.1.15,2013-08-09 02:15:00,
2013-08-08 22:20:00,71.8,70.3,30.03,East,94,0.0,15.0,95,0.00,,,0.02,Wunderground v.1.15,2013-08-09 02:20:00,
2013-08-08 22:30:00,71.9,70.4,30.03,East,98,0.0,15.0,95,0.00,,,0.02,Wunderground v.1.15,2013-08-09 02:30:00,
2013-08-08 22:40:00,71.9,70.4,30.03,ENE,65,0.0,15.0,95,0.00,,,0.02,Wunderground v.1.15,2013-08-09 02:40:00,
2013-08-08 22:45:00,71.9,70.4,30.03,ESE,105,0.0,15.0,95,0.00,,,0.02,Wunderground v.1.15,2013-08-09 02:45:00,
2013-08-08 22:55:00,71.9,70.7,30.03,East,86,0.0,15.0,96,0.00,,,0.02,Wunderground v.1.15,2013-08-09 02:55:00,
2013-08-08 23:05:00,71.9,70.7,30.03,SE,126,0.0,15.0,96,0.00,,,0.02,Wunderground v.1.15,2013-08-09 03:05:00,
2013-08-08 23:10:00,71.9,70.7,30.03,ESE,117,0.0,15.0,96,0.00,,,0.02,Wunderground v.1.15,2013-08-09 03:10:00,
2013-08-08 23:15:00,71.9,70.7,30.03,ESE,118,0.0,15.0,96,0.00,,,0.02,Wunderground v.1.15,2013-08-09 03:15:00,
2013-08-08 23:25:00,71.9,70.7,30.02,SE,137,0.0,15.0,96,0.00,,,0.02,Wunderground v.1.15,2013-08-09 03:25:00,
2013-08-08 23:35:00,71.9,70.7,30.02,ESE,111,0.0,15.0,96,0.00,,,0.02,Wunderground v.1.15,2013-08-09 03:35:00,
2013-08-08 23:50:00,71.9,70.7,30.03,SE,129,0.0,15.0,96,0.00,,,0.02,Wunderground v.1.15,2013-08-09 03:50:00,